Weather History for Thief River Falls, MN

Change the Weather History Date:

Tuesday, March 5, 2013

  Actual Average Record
Temperature  
Mean Temperature 20 °F -  
Max Temperature 23 °F 20 °F 47 °F (1987)
Min Temperature 17 °F 4 °F -22 °F (1997)
Degree Days  
Heating Degree Days 45    
Moisture  
Dew Point 16 °F    
Average Humidity 81    
Maximum Humidity 93    
Minimum Humidity 68    
Precipitation  
Precipitation 0.00 in - - ()
Sea Level Pressure  
Sea Level Pressure 30.25 in    
Wind  
Wind Speed 11 mph (NNE)    
Max Wind Speed 16 mph    
Max Gust Speed -    
Visibility 6 miles    
Events      
Averages and records for this station are not official NWS values.
T = Trace of Precipitation, MM = Missing Value Source: NWS Daily Summary

Daily Weather History Graph

Daily Weather History Graph

Search for Another Location

Airport:

Trip Planner

Search our weather history database for the weather conditions in past years. The results will help you decide how hot, cold, wet, or windy it might be!

Date:

Astronomy

Mar. 05, 2013 Rise Set
Actual Time 6:57 AM CST 6:15 PM CST
Civil Twilight 6:26 AM CST 6:46 PM CST
Nautical Twilight 5:50 AM CST 7:22 PM CST
Astronomical Twilight 5:14 AM CST 7:59 PM CST
Moon 2:30 AM CST (3/5) 11:35 AM CST (3/5)
Length of Visible Light 12h 20m
Length of Day
11h 18m
Last Quarter, 40% of the Moon is Illuminated
Mar 5
Last Quarter
Mar 11
New
Mar 19
First Quarter
Mar 27
Full
Apr 2
Last Quarter

Hourly Weather History & Observations

Time (CST) Temp. Windchill Dew Point Humidity Pressure Visibility Wind Dir Wind Speed Gust Speed Precip Events Conditions
12:15 AM 23.0 °F 10.6 °F 19.4 °F 86% 30.07 in 1.2 mi ENE 13.8 mph - N/A   Overcast
1:35 AM 23.0 °F 12.4 °F 19.4 °F 86% 30.08 in 2.0 mi NE 10.4 mph - N/A   Overcast
1:55 AM 23.0 °F 12.4 °F 19.4 °F 86% 30.08 in 2.5 mi NE 10.4 mph - N/A   Overcast
2:15 AM 23.0 °F 12.4 °F 19.4 °F 86% 30.09 in 3.0 mi NE 10.4 mph - N/A   Overcast
2:35 AM 21.2 °F 10.1 °F 19.4 °F 93% 30.10 in 2.5 mi ENE 10.4 mph - N/A   Overcast
2:55 AM 23.0 °F 13.1 °F 19.4 °F 86% 30.09 in 1.8 mi NE 9.2 mph - N/A   Overcast
3:15 AM 23.0 °F 13.1 °F 19.4 °F 86% 30.09 in 1.8 mi NE 9.2 mph - N/A   Overcast
3:35 AM 23.0 °F 12.4 °F 19.4 °F 86% 30.10 in 2.0 mi NE 10.4 mph - N/A   Overcast
3:55 AM 23.0 °F 11.7 °F 19.4 °F 86% 30.10 in 2.5 mi NE 11.5 mph - N/A   Overcast
4:15 AM 23.0 °F 12.4 °F 19.4 °F 86% 30.11 in 2.5 mi NNE 10.4 mph - N/A   Overcast
4:35 AM 23.0 °F 12.4 °F 19.4 °F 86% 30.12 in 2.0 mi NE 10.4 mph - N/A   Overcast
4:55 AM 23.0 °F 11.7 °F 19.4 °F 86% 30.13 in 1.8 mi NE 11.5 mph - N/A   Overcast
5:15 AM 23.0 °F 12.4 °F 19.4 °F 86% 30.13 in 2.5 mi NNE 10.4 mph - N/A   Overcast
5:35 AM 23.0 °F 12.4 °F 19.4 °F 86% 30.14 in 3.0 mi North 10.4 mph - N/A   Overcast
6:15 AM 21.2 °F 8.3 °F 17.6 °F 86% 30.16 in 3.0 mi NE 13.8 mph - N/A   Overcast
6:35 AM 21.2 °F 9.5 °F 17.6 °F 86% 30.17 in 3.0 mi NNE 11.5 mph - N/A   Overcast
7:35 AM 21.2 °F 8.9 °F 17.6 °F 86% 30.18 in 1.5 mi NNE 12.7 mph - N/A   Overcast
7:55 AM 21.2 °F 8.9 °F 17.6 °F 86% 30.19 in 2.0 mi North 12.7 mph - N/A   Overcast
8:15 AM 19.4 °F 6.0 °F 15.8 °F 86% 30.20 in 1.8 mi North 13.8 mph - N/A   Overcast
8:35 AM 19.4 °F 6.0 °F 15.8 °F 86% 30.21 in 2.0 mi North 13.8 mph - N/A   Overcast
8:55 AM 19.4 °F 5.0 °F 15.8 °F 86% 30.22 in 1.8 mi North 16.1 mph - N/A   Overcast
9:15 AM 19.4 °F 6.0 °F 15.8 °F 86% 30.23 in 1.2 mi North 13.8 mph - N/A   Overcast
9:35 AM 19.4 °F 6.0 °F 15.8 °F 86% 30.23 in 1.8 mi North 13.8 mph - N/A   Overcast
9:55 AM 19.4 °F 6.0 °F 15.8 °F 86% 30.24 in 3.0 mi North 13.8 mph - N/A   Mostly Cloudy
10:15 AM 19.4 °F 6.0 °F 15.8 °F 86% 30.24 in 5.0 mi NNE 13.8 mph - N/A   Clear
10:35 AM 21.2 °F 8.3 °F 15.8 °F 80% 30.24 in 7.0 mi NNE 13.8 mph - N/A   Clear
10:55 AM 21.2 °F 8.9 °F 14.0 °F 74% 30.25 in 9.0 mi NNE 12.7 mph - N/A   Clear
11:15 AM 21.2 °F 7.8 °F 15.8 °F 80% 30.26 in 10.0 mi North 15.0 mph - N/A   Clear
11:35 AM 21.2 °F 8.3 °F 15.8 °F 80% 30.26 in 10.0 mi North 13.8 mph - N/A   Partly Cloudy
11:55 AM 21.2 °F 8.9 °F 15.8 °F 80% 30.26 in 6.0 mi North 12.7 mph - N/A   Mostly Cloudy
12:15 PM 21.2 °F 10.1 °F 17.6 °F 86% 30.27 in 3.0 mi North 10.4 mph - N/A   Mostly Cloudy
12:35 PM 21.2 °F 8.9 °F 15.8 °F 80% 30.27 in 2.0 mi North 12.7 mph - N/A   Overcast
12:55 PM 21.2 °F 8.3 °F 17.6 °F 86% 30.28 in 1.8 mi North 13.8 mph - N/A   Overcast
1:15 PM 21.2 °F 8.3 °F 17.6 °F 86% 30.28 in 2.0 mi North 13.8 mph - N/A   Overcast
1:35 PM 21.2 °F 8.3 °F 17.6 °F 86% 30.28 in 4.0 mi North 13.8 mph - N/A   Mostly Cloudy
1:55 PM 21.2 °F 8.9 °F 17.6 °F 86% 30.28 in 9.0 mi North 12.7 mph - N/A   Partly Cloudy
2:15 PM 21.2 °F 8.9 °F 15.8 °F 80% 30.29 in 10.0 mi North 12.7 mph - N/A   Partly Cloudy
2:35 PM 21.2 °F 8.9 °F 15.8 °F 80% 30.29 in 10.0 mi North 12.7 mph - N/A   Scattered Clouds
2:55 PM 21.2 °F 9.5 °F 15.8 °F 80% 30.30 in 10.0 mi North 11.5 mph - N/A   Mostly Cloudy
3:15 PM 21.2 °F 9.5 °F 14.0 °F 74% 30.30 in 10.0 mi North 11.5 mph - N/A   Overcast
3:35 PM 21.2 °F 8.3 °F 15.8 °F 80% 30.30 in 10.0 mi North 13.8 mph - N/A   Overcast
3:55 PM 21.2 °F 8.3 °F 15.8 °F 80% 30.30 in 10.0 mi North 13.8 mph - N/A   Overcast
4:15 PM 21.2 °F 8.9 °F 14.0 °F 74% 30.30 in 10.0 mi North 12.7 mph - N/A   Overcast
4:35 PM 21.2 °F 10.1 °F 14.0 °F 74% 30.31 in 10.0 mi North 10.4 mph - N/A   Mostly Cloudy
4:55 PM 21.2 °F 10.1 °F 14.0 °F 74% 30.32 in 10.0 mi North 10.4 mph - N/A   Overcast
5:15 PM 21.2 °F 8.9 °F 14.0 °F 74% 30.33 in 10.0 mi North 12.7 mph - N/A   Overcast
5:35 PM 21.2 °F 9.5 °F 14.0 °F 74% 30.33 in 10.0 mi North 11.5 mph - N/A   Overcast
5:55 PM 21.2 °F 10.1 °F 14.0 °F 74% 30.33 in 10.0 mi NNE 10.4 mph - N/A   Overcast
6:15 PM 21.2 °F 11.7 °F 12.2 °F 68% 30.33 in 10.0 mi NNE 8.1 mph - N/A   Overcast
6:35 PM 21.2 °F 12.6 °F 14.0 °F 74% 30.34 in 10.0 mi NNE 6.9 mph - N/A   Overcast
6:55 PM 21.2 °F 13.6 °F 14.0 °F 74% 30.34 in 10.0 mi NNE 5.8 mph - N/A   Overcast
7:15 PM 21.2 °F 13.6 °F 14.0 °F 74% 30.34 in 10.0 mi NNE 5.8 mph - N/A   Overcast
7:35 PM 21.2 °F 14.9 °F 14.0 °F 74% 30.35 in 10.0 mi NNE 4.6 mph - N/A   Overcast
7:55 PM 19.4 °F 12.8 °F 14.0 °F 80% 30.35 in 10.0 mi North 4.6 mph - N/A   Overcast
8:15 PM 19.4 °F 11.5 °F 12.2 °F 74% 30.35 in 10.0 mi NNE 5.8 mph - N/A   Overcast
8:35 PM 19.4 °F 8.6 °F 12.2 °F 74% 30.35 in 10.0 mi NNE 9.2 mph - N/A   Overcast
8:55 PM 19.4 °F 10.4 °F 12.2 °F 74% 30.36 in 10.0 mi North 6.9 mph - N/A   Overcast
9:15 PM 17.6 °F 9.3 °F 12.2 °F 79% 30.36 in 10.0 mi North 5.8 mph - N/A   Overcast
9:35 PM 19.4 °F 12.8 °F 14.0 °F 80% 30.36 in 10.0 mi NNE 4.6 mph - N/A   Overcast
9:55 PM 17.6 °F 8.2 °F 14.0 °F 86% 30.36 in 10.0 mi NE 6.9 mph - N/A   Overcast
10:15 PM 19.4 °F 7.9 °F 14.0 °F 80% 30.37 in 10.0 mi NE 10.4 mph - N/A   Overcast
10:35 PM 19.4 °F 9.5 °F 14.0 °F 80% 30.37 in 10.0 mi NE 8.1 mph - N/A   Overcast
10:55 PM 19.4 °F 8.6 °F 14.0 °F 80% 30.37 in 10.0 mi NE 9.2 mph - N/A   Overcast
11:15 PM 19.4 °F 9.5 °F 14.0 °F 80% 30.37 in 10.0 mi NE 8.1 mph - N/A   Overcast
11:35 PM 19.4 °F 14.3 °F 12.2 °F 74% 30.38 in 10.0 mi NNE 3.5 mph - N/A   Overcast
11:55 PM 19.4 °F 14.3 °F 12.2 °F 74% 30.38 in 10.0 mi North 3.5 mph - N/A   Overcast